Regional Weather Roundup
Issued by NWS

Home | Current Version | Previous Version | Text Only | Print | Product List | Glossary On
Versions: 1 2 3 4 5 6 7 8 9 10 11 12 13 14 15 16 17 18 19 20 21 22 23 24 25 26 27 28 29 30 31 32 33 34 35 36 37 38 39 40 41 42 43 44 45 46 47 48 49 50
000
ASCA44 KEWX 162020
RWRMX

LATIN AMERICA AND CARIBBEAN REGIONAL WEATHER ROUNDUP
NATIONAL WEATHER SERVICE AUSTIN/SAN ANTONIO TX
300 PM CDT WED APR 16 2014

NOTE: "FAIR" INDICATED FEW OR NO CLOUDS BELOW 12,000 FEET WITH NO
SIGNIFICANT WEATHER AND/OR OBSTRUCTIONS TO VISIBILITY.

BAJA CALIFORNIA

CITY           SKY/WX    TMP DP  RH WIND       PRES   REMARKS
LORETO         PTSUNNY   82  61  47 SE7       29.79F
LA PAZ         PTSUNNY   90  41  18 SW12      29.85S
MEXICALI       SUNNY     90  28  11 CALM      29.72F
S.J. DEL CABO  MOSUNNY   81  57  44 SE16      29.85F
TIJUANA        SUNNY     70  50  49 W12       29.86F

NORTHWESTERN MEXICO

CITY           SKY/WX    TMP DP  RH WIND       PRES   REMARKS
CULIACAN       CLOUDY    86  64  48 CALM      29.89F
DURANGO        CLOUDY    75   9   7 S18       30.06F
GUAYMAS        CLOUDY    82  57  42 S10       29.77F
HERMOSILLO     PTSUNNY   90  21   8 S9        29.81F
CD. JUAREZ     MOSUNNY   81  12   7 W12       29.82F
LOS MOCHIS     PTSUNNY   81  57  44 SE21      29.85F
OBREGON        CLOUDY    86  48  26 S15       29.81F

NORTHEASTERN MEXICO

CITY           SKY/WX    TMP DP  RH WIND       PRES   REMARKS
CHIHUAHUA      CLOUDY    79  30  17 S13       29.93F
MATAMOROS      CLOUDY    72  59  64 SE12      30.03F
MONCLOVA       MOSUNNY   73  36  25 NE6       29.89F
MONTERREY      PTSUNNY   68  39  34 E10       29.96F
NUEVO LAREDO   PTSUNNY   75  48  38 S12       29.96F
PIEDRAS NEGRAS MOSUNNY   73  54  49 SE12      29.95
REYNOSA        CLOUDY    73  46  38 SE16      29.98F
SALTILLO       PTSUNNY   75  52  43 N7        30.02F
TORREON        PTSUNNY   82  37  20 NE5       29.91F
CD. VICTORIA   MOSUNNY   77  45  31 SE6       29.95

WESTERN MEXICO

CITY           SKY/WX    TMP DP  RH WIND       PRES   REMARKS
AGUASCALIENTES MOSUNNY   81  27  13 SW17G29   30.10F
COLIMA         MOSUNNY   84  55  37 SW12      29.96F
DEL BAJIO      MOSUNNY   86  34  15 SW17      30.09F
GUADALAJARA    SUNNY     86  30  13 S10G22    30.03F
MANZANILLO     SUNNY     82  73  74 S12       29.82F
MAZATLAN       PTSUNNY   79  57  47 S12       29.88F
P. VALLARTA    MOSUNNY   84  72  65 S16       29.88S
URUAPAN        PTSUNNY   75  54  46 S12       30.14F
ZACATECAS      PTSUNNY   79  30  17 SW17G30   30.13F

CENTRAL MEXICO

CITY           SKY/WX    TMP DP  RH WIND       PRES   REMARKS
CUERNAVACA     MOSUNNY   84  48  28 CALM      30.03F
MEXICO CITY    MOSUNNY   75  46  35 SE16      30.18F
MORELIA        PTSUNNY   77  48  36 S18       30.12F
POZA RICA      CLOUDY    72  54  53 SE7       30.00F
PUEBLA         MOSUNNY   73  50  43 S18       30.24F
QUERETARO      PTSUNNY   79  37  22 W17       30.16F
S. LUIS POTOSI MOSUNNY   82  36  18 S17G29    30.04F
TAMPICO        MOSUNNY   73  52  46 E15       29.98F
TOLUCA         PTSUNNY   68  41  37 SE23      30.29F

SOUTHERN MEXICO

CITY           SKY/WX    TMP DP  RH WIND       PRES   REMARKS
ACAPULCO       SUNNY     90  70  51 W9        29.81F HX  95
B. DE HUATULCO SUNNY     90  77  66 CALM      29.86F HX 102
P. ESCONDIDO   SUNNY     82  75  78 S14       30.01S
VERACRUZ       SUNNY     77  55  47 E15       29.95F
ZIHUATANEJO    SUNNY     88  73  62 SW12      29.84F HX  96

YUCATAN PENINSULA

CITY           SKY/WX    TMP DP  RH WIND       PRES   REMARKS
CAMPECHE       CLOUDY    79  73  83 NW6G17    29.91F
CANCUN         PTSUNNY   82  72  69 SE10      29.92F
CHETUMAL       PTSUNNY   86  75  70 E7        29.87F HX  95
CD. DEL CARMEN FOG       72  70  94 NW12      29.95F VSB 1
COZUMEL        PTSUNNY   81  72  74 SE8       29.92F
MERIDA         PTSUNNY   90  64  43 NE9       29.89F HX  91
MINATITLAN     CLOUDY    75  64  69 N9        29.95F
TAPACHULA      MOSUNNY   90  70  51 SW12      29.81F HX  95
TUX. GUTIERREZ MOSUNNY   86  59  39 NW5       29.91F
VILLAHERMOSA   CLOUDY    77  66  69 N7        29.99F

CENTRAL AMERICA

CITY           SKY/WX    TMP DP  RH WIND       PRES   REMARKS
BELIZE CITY    PTSUNNY   86  73  66 NW5       29.88F HX  93
MANAGUA        PTCLDY    95  70  43 E16       29.74F HX 101

CARIBBEAN

CITY           SKY/WX    TMP DP  RH WIND       PRES   REMARKS
ARUBA          MOSUNNY   88  75  66 E20       29.80F HX  97
CURACAO        MOSUNNY   84  72  65 E14       29.86S
KINGSTON       MOSUNNY  N/A N/A N/A SE16      29.89S
NASSAU         PTSUNNY   81  72  74 N7        30.00
SAN JUAN       MOSUNNY   84  72  65 NE15      29.94F
SANTO DOMINGO  MOSUNNY   84  72  65 S9        29.89S
ST. CROIX      SUNNY     84  70  61 SE10      29.94F
ST. KITTS      MOSUNNY   81  72  74 NE12      29.92F
ST. MAARTEN    MOSUNNY   82  72  69 SE8       29.92F
ST. THOMAS     CLOUDY    81  73  78 SE8       29.94F

$$




USA.gov is the U.S. government's official web portal to all federal, state and local government web resources and services.